Broomfield, CO

2:00 PM MDT on June 23, 2017 (GMT -0600)
Jeffco

Weather History for KBJC - September, 2012

Change the Weather History Date:

Wednesday, September 19, 2012

  Actual Average Record
Temperature  
Mean Temperature 70 °F -  
Max Temperature 80 °F 71 °F 93 °F (2010)
Min Temperature 59 °F 48 °F 31 °F (1988)
Cooling Degree Days 4    
Growing Degree Days 20 (Base 50)    
Moisture  
Dew Point 22 °F    
Average Humidity 19    
Maximum Humidity 49    
Minimum Humidity 10    
Precipitation  
Precipitation 0.00 in - - ()
Sea Level Pressure  
Sea Level Pressure 30.18 in    
Wind  
Wind Speed 8 mph (WNW)    
Max Wind Speed 14 mph    
Max Gust Speed 17 mph    
Visibility 10 miles    
Events      
Averages and records for this station are not official NWS values.
T = Trace of Precipitation, MM = Missing Value Source: NWS Daily Summary

Daily Weather History Graph

Daily Weather History Graph

Search for Another Location

Airport or City:

Trip Planner

Search our weather history database for the weather conditions in past years. The results will help you decide how hot, cold, wet, or windy it might be!

Date:

Astronomy

Sep. 19, 2012 Rise Set
Actual Time 6:45 AM MDT 7:01 PM MDT
Civil Twilight 6:18 AM MDT 7:28 PM MDT
Nautical Twilight 5:46 AM MDT 8:00 PM MDT
Astronomical Twilight 5:14 AM MDT 8:32 PM MDT
Moon 10:58 AM MDT (9/19) 9:13 PM MDT (9/19)
Length of Visible Light 13h 09m
Length of Day
12h 15m
Waxing Crescent, 17% of the Moon is Illuminated
Sep 19
Waxing Crescent
Sep 22
First Quarter
Sep 29
Full
Oct 8
Last Quarter
Oct 15
New

Hourly Weather History & Observations

Time (MDT) Temp. Dew Point Humidity Pressure Visibility Wind Dir Wind Speed Gust Speed Precip Events Conditions
12:15 AM 60.8 °F 26.6 °F 27% 30.14 in 10.0 mi West 6.9 mph - N/A   Clear
12:35 AM 60.8 °F 23.0 °F 23% 30.14 in 10.0 mi West 5.8 mph - N/A   Clear
12:55 AM 62.6 °F 21.2 °F 20% 30.14 in 10.0 mi West 8.1 mph - N/A   Clear
1:15 AM 62.6 °F 19.4 °F 19% 30.14 in 10.0 mi WNW 6.9 mph - N/A   Clear
1:35 AM 64.4 °F 19.4 °F 18% 30.15 in 10.0 mi West 12.7 mph - N/A   Clear
1:55 AM 64.4 °F 17.6 °F 16% 30.15 in 10.0 mi WNW 11.5 mph - N/A   Clear
2:15 AM 62.6 °F 19.4 °F 19% 30.14 in 10.0 mi West 8.1 mph - N/A   Clear
2:35 AM 64.4 °F 17.6 °F 16% 30.14 in 10.0 mi West 5.8 mph - N/A   Clear
2:55 AM 64.4 °F 17.6 °F 16% 30.14 in 10.0 mi West 5.8 mph - N/A   Clear
3:15 AM 60.8 °F 21.2 °F 22% 30.13 in 10.0 mi West 3.5 mph - N/A   Clear
3:34 AM 60.8 °F 19.4 °F 20% 30.13 in 10.0 mi West 4.6 mph - N/A   Clear
3:55 AM 62.6 °F 19.4 °F 19% 30.13 in 10.0 mi West 9.2 mph - N/A   Clear
4:15 AM 59.0 °F 23.0 °F 25% 30.13 in 10.0 mi West 8.1 mph - N/A   Clear
4:35 AM 60.8 °F 21.2 °F 22% 30.14 in 10.0 mi West 9.2 mph - N/A   Clear
4:55 AM 60.8 °F 19.4 °F 20% 30.14 in 10.0 mi West 10.4 mph - N/A   Clear
5:15 AM 62.6 °F 17.6 °F 18% 30.15 in 10.0 mi WNW 11.5 mph - N/A   Clear
5:35 AM 59.0 °F 21.2 °F 23% 30.15 in 10.0 mi West 12.7 mph - N/A   Clear
5:48 AM 66.2 °F 17.6 °F 15% 30.15 in 10.0 mi West 10.4 mph - N/A   Clear
5:55 AM 60.8 °F 21.2 °F 22% 30.15 in 10.0 mi West 11.5 mph - N/A   Clear
6:49 AM 64.4 °F 17.6 °F 16% 30.15 in 12.0 mi West 13.8 mph - N/A   Mostly Cloudy
7:47 AM 66.2 °F 46.4 °F 49% 30.18 in 12.0 mi WSW 4.6 mph - N/A   Mostly Cloudy
8:47 AM 71.6 °F 24.8 °F 17% 30.20 in 15.0 mi Variable 4.6 mph - N/A   Mostly Cloudy
9:47 AM 73.4 °F 17.6 °F 12% 30.23 in 12.0 mi NNE 6.9 mph - N/A   Mostly Cloudy
10:51 AM 75.2 °F 30.2 °F 19% 30.24 in 10.0 mi North 4.6 mph - N/A   Mostly Cloudy
11:30 AM 77.0 °F 21.2 °F 12% 30.24 in 8.0 mi NE 11.5 mph 17.3 mph N/A   Mostly Cloudy
11:45 AM 78.8 °F 19.4 °F 11% 30.24 in 10.0 mi NNE 12.7 mph - N/A   Mostly Cloudy
12:50 PM 77.0 °F 17.6 °F 11% 30.24 in 12.0 mi East 9.2 mph - N/A   Mostly Cloudy
1:48 PM 78.8 °F 19.4 °F 11% 30.23 in 10.0 mi NNE 6.9 mph - N/A   Mostly Cloudy
2:47 PM 78.8 °F 19.4 °F 11% 30.20 in 10.0 mi East 6.9 mph - N/A   Mostly Cloudy
3:50 PM 80.6 °F 19.4 °F 10% 30.19 in 10.0 mi East 9.2 mph - N/A   Mostly Cloudy
4:47 PM 80.6 °F 19.4 °F 10% 30.18 in 10.0 mi East 5.8 mph - N/A   Mostly Cloudy
5:53 PM 77.0 °F 21.2 °F 12% 30.18 in 10.0 mi ENE 5.8 mph - N/A   Mostly Cloudy
6:50 PM 73.4 °F 23.0 °F 15% 30.19 in 10.0 mi NE 4.6 mph - N/A   Mostly Cloudy
7:47 PM 69.8 °F 24.8 °F 18% 30.21 in 10.0 mi Variable 3.5 mph - N/A   Mostly Cloudy
8:59 PM 68.0 °F 24.8 °F 20% 30.24 in 10.0 mi Calm Calm - N/A   Mostly Cloudy
9:50 PM 66.2 °F 26.6 °F 23% 30.25 in 10.0 mi Calm Calm - N/A   Mostly Cloudy
11:15 PM 59.0 °F 30.2 °F 34% 30.25 in 10.0 mi West 5.8 mph - N/A   Clear
11:35 PM 59.0 °F 28.4 °F 31% 30.25 in 10.0 mi West 3.5 mph - N/A   Clear
11:55 PM 60.8 °F 28.4 °F 29% 30.24 in 10.0 mi WNW 3.5 mph - N/A   Clear